This demonstration page uses our WeatherBlox Daily Observations layout. Learn more.

Left ArrowRight Arrow

34.02893, -84.19858

Hourly Observations for April 21, 2022

Temp ( °F °C ) Dew Point ( °F °C ) Humidity (%) Winds ( mph kmh ) Pressure ( in mb ) Visibility ( mi km ) Precip ( " mm )
12:53 am 00:53 Clear 60 15.6 47 8.3 62 62 VRB 7 11 30.31 1026 10 16 0.00 0.00
1:53 am 01:53 Clear 59 15 49 9.4 69 69 VRB 3 6 30.33 1027 10 16 0.00 0.00
2:53 am 02:53 Clear 58 14.4 50 10 75 75 SSE 6 9 30.34 1027 10 16 0.00 0.00
3:53 am 03:53 Clear 57 13.9 50 10 78 78 undefined N/A 30.35 1028 10 16 0.00 0.00
4:53 am 04:53 Cloudy 56 13.3 50 10 81 81 VRB 3 6 30.35 1028 10 16 0.00 0.00
5:53 am 05:53 Cloudy 55 12.8 50 10 83 83 VRB 3 6 30.37 1029 10 16 0.00 0.00
6:08 am 06:08 Cloudy 55 12.8 50 10 83 83 VRB 5 7 30.39 1029 10 16 0.00 0.00
6:53 am 06:53 Mostly Cloudy 54 12.2 50 10 87 87 VRB 3 6 30.37 1029 10 16 0.00 0.00
7:53 am 07:53 Mostly Cloudy 54 12.2 50 10 87 87 VRB 3 6 30.39 1029 10 16 0.00 0.00
8:53 am 08:53 Mostly Cloudy 56 13.3 51 10.6 84 84 VRB 7 11 30.40 1030 10 16 0.00 0.00
9:53 am 09:53 Mostly Cloudy 58 14.4 53 11.7 84 84 Calm 30.42 1030 10 16 0.00 0.00
10:00 am 10:00 Sunny 59 15 53 11.7 81 81 Calm 30.42 1030 10 16 0.00 0.00
10:53 am 10:53 Mostly Sunny 62 16.7 54 12.2 75 75 S 3 6 30.43 1031 10 16 0.00 0.00
11:42 am 11:42 Cloudy 64 17.8 54 12.2 70 70 VRB 3 6 30.43 1031 10 16 0.00 0.00
11:53 am 11:53 Cloudy 64 17.8 54 12.2 70 70 Calm 30.44 1031 10 16 0.00 0.00
12:14 pm 12:14 Cloudy 66 18.9 55 12.8 68 68 VRB 3 6 30.44 1031 10 16 0.00 0.00
12:53 pm 12:53 Cloudy 67 19.4 55 12.8 66 66 VRB 3 6 30.42 1030 10 16 0.00 0.00
1:53 pm 13:53 Mostly Sunny 71 21.7 56 13.3 59 59 VRB 7 11 30.40 1029 10 16 0.00 0.00
2:53 pm 14:53 Sunny 72 22.2 55 12.8 55 55 VRB 7 11 30.37 1028 10 16 0.00 0.00
3:53 pm 15:53 Mostly Sunny 74 23.3 54 12.2 50 50 undefined N/A 30.34 1028 10 16 0.00 0.00
4:53 pm 16:53 Sunny 74 23.3 54 12.2 50 50 S 9 15 30.32 1027 10 16 0.00 0.00
5:53 pm 17:53 Sunny 73 22.8 53 11.7 50 50 S 7 11 30.33 1027 10 16 0.00 0.00
6:53 pm 18:53 Sunny 73 22.8 54 12.2 51 51 VRB 3 6 30.33 1027 10 16 0.00 0.00
7:53 pm 19:53 Sunny 70 21.1 53 11.7 55 55 Calm 30.35 1028 10 16 0.00 0.00
8:53 pm 20:53 Clear 64 17.8 54 12.2 70 70 Calm 30.37 1028 10 16 0.00 0.00
9:53 pm 21:53 Clear 61 16.1 54 12.2 78 78 Calm 30.38 1029 10 16 0.00 0.00
10:53 pm 22:53 Clear 60 15.6 54 12.2 80 80 Calm 30.39 1029 10 16 0.00 0.00
11:53 pm 23:53 Clear 58 14.4 54 12.2 87 87 Calm 30.38 1029 10 16 0.00 0.00

Powered by AerisWeather